Latest Weather Observations for Nhill Aerodrome

IDV60801

Issued at 1:35 pm EST Wednesday 1 October 2014 (issued every 30 minutes, with the page automatically refreshed every 10 minutes)

About weather observations | Map of weather stations | Latest weather observations for VIC | Other Formats
Station Details ID: 078015 Name: NHILL AERODROME Lat: -36.31 Lon: 141.65 Height: 138.9 m
Data from the previous 72 hours. | See also: Recent months at Nhill Aerodrome
Date/Time
EST
Temp
°C
App
Temp
°C
Dew
Point
Rel
Hum
%
Delta-T
°C
Wind Press
QNH
hPa
Press
MSL
hPa
Rain
since 9 am
mm
Dir
 
Spd
km/h
Gust
km/h
Spd
kts
Gust
kts
01/01:30pm 16.2 10.2 1.1 36 6.6 WSW 22 26 12 14 1025.7 1025.7 0.0
01/01:00pm 15.4 9.0 1.2 38 6.2 SSW 24 35 13 19 1025.9 1025.9 0.0
01/12:30pm 15.1 8.4 1.3 39 6.0 SSW 26 37 14 20 1026.3 1026.3 0.0
01/12:00pm 15.5 9.2 1.6 39 6.1 SSW 24 35 13 19 1026.4 1026.4 0.0
01/11:50am 14.9 7.6 0.0 36 6.3 SSW 28 59 15 32 1026.6 1026.6 0.0
01/11:30am 13.5 6.7 0.5 41 5.5 SW 26 37 14 20 1026.7 1026.7 0.0
01/11:00am 14.6 8.3 1.8 42 5.6 SSW 24 33 13 18 1026.7 1026.7 0.0
01/10:30am 12.9 6.7 2.2 48 4.7 SW 24 30 13 16 1026.8 1026.8 0.0
01/10:00am 12.4 6.7 2.6 51 4.3 SSW 22 35 12 19 1026.7 1026.7 0.0
01/09:30am 12.0 5.9 3.0 54 4.0 SSW 24 30 13 16 1026.4 1026.5 0.0
01/09:00am 11.4 6.4 3.4 58 3.5 SSW 19 24 10 13 1026.3 1026.4 0.2
01/08:30am 9.2 5.9 4.4 72 2.1 SW 11 17 6 9 1025.8 1025.9 0.2
01/08:00am 6.4 4.0 4.2 86 0.9 WNW 6 9 3 5 1025.5 1025.6 0.2
01/07:30am 4.5 1.8 2.8 89 0.7 NNW 6 7 3 4 1025.1 1025.2 0.2
01/07:00am 3.0 -0.1 1.4 89 0.6 NW 7 9 4 5 1024.6 1024.7 0.2
01/06:30am 2.9 -0.2 1.4 90 0.6 W 7 9 4 5 1024.1 1024.2 0.2
01/06:00am 2.4 -0.8 0.9 90 0.6 NW 7 11 4 6 1023.5 1023.6 0.2
01/05:30am 2.5 -0.5 0.9 89 0.6 WNW 6 7 3 4 1022.8 1022.8 0.2
01/05:00am 2.8 -0.7 1.2 89 0.6 WNW 9 11 5 6 1022.4 1022.4 0.2
01/04:30am 3.1 0.0 1.3 88 0.7 W 7 11 4 6 1022.1 1022.1 0.2
01/04:00am 3.4 0.0 1.6 88 0.7 W 9 11 5 6 1021.8 1021.8 0.2
01/03:30am 3.6 0.5 1.6 87 0.8 W 7 11 4 6 1021.5 1021.5 0.2
01/03:00am 3.8 0.0 1.8 87 0.8 WNW 11 13 6 7 1021.3 1021.3 0.2
01/02:30am 4.2 0.5 2.1 86 0.8 W 11 13 6 7 1020.9 1020.9 0.2
01/02:00am 4.5 0.8 2.2 85 0.9 W 11 13 6 7 1020.8 1020.8 0.2
01/01:30am 5.2 0.8 2.7 84 1.0 W 15 20 8 11 1020.8 1020.8 0.2
01/01:00am 5.0 0.6 2.5 84 1.0 W 15 17 8 9 1020.7 1020.7 0.2
01/12:30am 5.4 1.0 2.9 84 1.0 W 15 17 8 9 1020.2 1020.3 0.2
01/12:00am 5.4 1.4 2.8 83 1.1 W 13 15 7 8 1019.8 1019.9 0.2
 
Date/Time
EST
Temp
°C
App
Temp
°C
Dew
Point
Rel
Hum
%
Delta-T
°C
Wind Press
QNH
hPa
Press
MSL
hPa
Rain
since 9 am
mm
Dir
 
Spd
km/h
Gust
km/h
Spd
kts
Gust
kts
30/11:30pm 5.9 1.6 3.2 83 1.1 W 15 17 8 9 1019.4 1019.5 0.2
30/11:00pm 6.6 2.0 3.6 81 1.3 W 17 20 9 11 1019.2 1019.3 0.2
30/10:30pm 6.7 1.7 3.7 81 1.3 W 19 20 10 11 1018.9 1019.0 0.2
30/10:00pm 6.6 2.3 3.4 80 1.4 W 15 19 8 10 1018.5 1018.6 0.2
30/09:30pm 7.5 2.9 3.9 78 1.6 W 17 19 9 10 1018.1 1018.2 0.2
30/09:00pm 8.4 3.8 3.8 73 2.0 WSW 17 20 9 11 1018.0 1018.1 0.2
30/08:30pm 9.6 3.4 4.2 69 2.4 WSW 26 35 14 19 1017.6 1017.7 0.2
30/08:00pm 9.4 4.0 4.4 71 2.2 WSW 22 28 12 15 1017.1 1017.1 0.2
30/07:30pm 8.8 2.6 4.4 74 2.0 SW 26 35 14 19 1016.6 1016.6 0.2
30/07:18pm 9.0 0.7 4.4 73 2.0 SW 37 52 20 28 1016.5 1016.5 0.2
30/07:06pm 11.3 4.1 3.1 57 3.6 WSW 30 50 16 27 1015.9 1015.9 0.2
30/07:00pm 11.8 4.9 2.3 52 4.1 WSW 28 39 15 21 1015.7 1015.7 0.2
30/06:30pm 12.6 4.6 1.6 47 4.7 WSW 33 46 18 25 1014.9 1014.9 0.2
30/06:00pm 13.5 3.9 0.9 42 5.4 WSW 41 54 22 29 1014.2 1014.2 0.2
30/05:30pm 14.3 4.3 1.2 41 5.7 WSW 43 57 23 31 1013.5 1013.5 0.2
30/05:23pm 14.4 5.3 1.7 42 5.6 WSW 39 57 21 31 1013.5 1013.5 0.2
30/05:00pm 14.8 5.1 2.7 44 5.4 WSW 43 57 23 31 1012.8 1012.9 0.2
30/04:31pm 15.8 6.1 2.6 41 6.0 WSW 43 61 23 33 1012.4 1012.5 0.2
30/04:30pm 15.8 5.9 2.9 42 5.9 WSW 44 61 24 33 1012.5 1012.6 0.2
30/04:19pm 15.6 5.3 2.4 41 5.9 WSW 46 65 25 35 1012.1 1012.2 0.2
30/04:00pm 15.4 7.0 7.2 58 4.1 WSW 41 56 22 30 1011.9 1012.0 0.2
30/03:33pm 15.4 5.8 6.4 55 4.4 WSW 46 67 25 36 1011.6 1011.7 0.2
30/03:30pm 14.7 5.0 6.0 56 4.2 WSW 46 61 25 33 1011.7 1011.8 0.2
30/03:00pm 14.0 4.1 8.2 68 2.9 WSW 50 70 27 38 1011.6 1011.7 0.2
30/02:44pm 14.0 3.2 7.8 66 3.1 WSW 54 72 29 39 1011.5 1011.6 0.2
30/02:30pm 12.4 2.8 9.4 82 1.5 WSW 50 67 27 36 1011.3 1011.4 0.2
30/02:00pm 13.2 3.7 9.8 80 1.8 W 50 69 27 37 1010.6 1010.6 0.0
30/01:45pm 13.5 3.2 11.0 85 1.3 WSW 56 74 30 40 1010.2 1010.2 0.0
30/01:42pm 13.4 2.0 10.4 82 1.6 WSW 61 74 33 40 1010.1 1010.1 0.0
30/01:37pm 15.5 0.1 9.0 65 3.4 W 80 104 43 56 1009.4 1009.4 0.0
30/01:30pm 20.0 8.8 6.0 40 7.0 WNW 54 74 29 40 1008.6 1008.6 0.0
30/01:05pm 20.9 9.7 5.7 37 7.6 WNW 54 78 29 42 1008.6 1008.6 0.0
30/01:00pm 21.2 9.6 5.9 37 7.7 WNW 56 70 30 38 1008.7 1008.7 0.0
30/12:39pm 20.2 9.7 5.8 39 7.2 WNW 50 69 27 37 1008.7 1008.7 0.0
30/12:30pm 19.6 8.9 6.3 42 6.7 WNW 52 65 28 35 1008.8 1008.8 0.0
30/12:00pm 21.3 11.6 6.0 37 7.7 WNW 46 65 25 35 1008.9 1008.9 0.0
30/11:30am 20.2 10.0 5.4 38 7.3 WNW 48 67 26 36 1009.2 1009.2 0.0
30/11:00am 20.2 8.8 4.7 36 7.6 WNW 54 72 29 39 1009.4 1009.4 0.0
30/10:30am 20.3 11.0 5.1 37 7.5 WNW 43 61 23 33 1009.8 1009.8 0.0
30/10:08am 19.6 10.4 5.3 39 7.0 WNW 43 63 23 34 1009.8 1009.8 0.0
30/10:00am 19.7 11.3 5.7 40 7.0 WNW 39 56 21 30 1010.1 1010.1 0.0
30/09:32am 18.3 12.0 7.4 49 5.5 NW 30 48 16 26 1010.2 1010.2 0.0
30/09:30am 18.1 11.8 7.2 49 5.5 NW 30 44 16 24 1010.3 1010.3 0.0
30/09:00am 16.6 10.1 8.1 57 4.3 NNW 32 46 17 25 1010.1 1010.1 0.0
30/08:30am 15.1 9.5 8.8 66 3.2 NNW 28 37 15 20 1010.3 1010.3 0.0
30/08:00am 13.0 9.3 9.6 80 1.7 NNW 19 26 10 14 1010.3 1010.3 0.0
30/07:30am 11.4 7.7 9.3 87 1.1 NNW 19 26 10 14 1010.5 1010.5 0.0
30/07:00am 10.1 7.3 8.5 90 0.8 NNW 13 17 7 9 1010.8 1010.8 0.0
30/06:30am 9.4 6.4 7.8 90 0.8 NNW 13 20 7 11 1010.8 1010.8 0.0
30/06:00am 9.2 6.2 7.6 90 0.8 N 13 17 7 9 1010.7 1010.7 0.0
30/05:30am 8.6 6.2 7.2 91 0.7 N 9 13 5 7 1010.5 1010.5 0.0
30/05:00am 8.0 5.5 6.5 90 0.7 NNW 9 11 5 6 1011.1 1011.1 0.0
30/04:30am 8.6 5.8 7.1 90 0.7 NNW 11 13 6 7 1011.0 1011.0 0.0
30/04:00am 8.6 5.8 7.1 90 0.7 NNW 11 15 6 8 1011.1 1011.1 0.0
30/03:30am 8.9 5.8 7.2 89 0.8 NNW 13 15 7 8 1011.3 1011.4 0.0
30/03:00am 8.8 6.0 6.9 88 0.9 NNW 11 15 6 8 1011.5 1011.6 0.0
30/02:30am 9.2 6.0 7.0 86 1.0 NNW 13 17 7 9 1011.8 1011.9 0.0
30/02:00am 9.7 6.6 7.3 85 1.1 NNW 13 17 7 9 1012.0 1012.1 0.0
30/01:30am 9.7 6.6 7.3 85 1.1 NW 13 17 7 9 1012.3 1012.4 0.0
30/01:00am 9.7 6.5 6.8 82 1.4 NW 13 15 7 8 1012.7 1012.8 0.0
30/12:30am 11.0 8.0 7.7 80 1.6 NW 13 15 7 8 1012.7 1012.8 0.0
30/12:00am 11.1 8.9 7.8 80 1.6 NW 9 11 5 6 1013.0 1013.1 0.0
 
Date/Time
EST
Temp
°C
App
Temp
°C
Dew
Point
Rel
Hum
%
Delta-T
°C
Wind Press
QNH
hPa
Press
MSL
hPa
Rain
since 9 am
mm
Dir
 
Spd
km/h
Gust
km/h
Spd
kts
Gust
kts
29/11:30pm 11.3 8.7 7.8 79 1.7 NW 11 11 6 6 1013.0 1013.1 0.0
29/11:00pm 11.7 9.8 7.6 76 2.0 W 7 9 4 5 1013.0 1013.1 0.0
29/10:30pm 12.6 10.8 8.1 74 2.2 W 7 9 4 5 1013.3 1013.3 0.0
29/10:00pm 13.2 11.4 8.1 71 2.5 W 7 11 4 6 1013.4 1013.4 0.0
29/09:30pm 13.0 11.4 7.9 71 2.5 W 6 7 3 4 1013.4 1013.4 0.0
29/09:00pm 13.5 10.5 7.9 69 2.8 W 13 17 7 9 1013.4 1013.4 0.0
29/08:30pm 14.0 11.0 7.5 65 3.2 W 13 17 7 9 1013.0 1013.1 0.0
29/08:00pm 16.2 13.7 6.6 53 4.7 N 9 13 5 7 1012.3 1012.4 0.0
29/07:30pm 16.5 14.1 7.2 54 4.7 NNW 9 13 5 7 1012.1 1012.2 0.0
29/07:00pm 17.3 14.7 7.6 53 4.9 NW 11 13 6 7 1011.9 1012.0 0.0
29/06:30pm 18.6 15.9 7.4 48 5.7 NW 11 13 6 7 1011.9 1012.0 0.0
29/06:00pm 20.3 16.8 7.0 42 6.8 WNW 15 24 8 13 1011.7 1011.8 0.0
29/05:30pm 21.0 16.7 6.9 40 7.2 NW 19 28 10 15 1011.6 1011.7 0.0
29/05:00pm 21.2 15.9 6.7 39 7.4 NW 24 37 13 20 1011.5 1011.6 0.0
29/04:30pm 22.0 16.6 6.3 36 8.0 WNW 24 35 13 19 1011.6 1011.7 0.0
29/04:00pm 22.2 17.2 6.4 36 8.1 WNW 22 37 12 20 1011.5 1011.6 0.0
29/03:30pm 22.1 16.9 7.1 38 7.8 NW 24 43 13 23 1011.6 1011.7 0.0
29/03:00pm 21.8 17.4 6.5 37 7.8 NNW 19 30 10 16 1011.9 1012.0 0.0
29/02:30pm 22.3 17.4 8.4 41 7.4 WNW 24 41 13 22 1012.3 1012.4 0.0
29/02:00pm 20.8 15.6 7.1 41 7.0 NNW 24 39 13 21 1012.7 1012.8 0.0
29/01:30pm 20.0 14.9 7.7 45 6.4 NW 24 39 13 21 1013.4 1013.4 0.0
29/01:00pm 20.2 15.0 7.2 43 6.7 NW 24 35 13 19 1013.8 1013.8 0.0
29/12:30pm 19.3 14.4 6.8 44 6.3 WNW 22 35 12 19 1014.2 1014.2 0.0
29/12:00pm 18.9 14.0 6.7 45 6.1 W 22 35 12 19 1014.5 1014.5 0.0
29/11:30am 18.4 13.9 6.9 47 5.8 WSW 20 32 11 17 1014.9 1014.9 0.0
29/11:00am 17.9 13.5 7.3 50 5.4 W 20 28 11 15 1015.1 1015.1 0.0
29/10:30am 17.3 11.9 7.9 54 4.8 W 26 35 14 19 1015.0 1015.0 0.0
29/10:00am 16.0 10.9 7.5 57 4.3 W 24 33 13 18 1015.0 1015.0 0.0
29/09:30am 15.4 10.6 8.9 65 3.3 W 24 32 13 17 1014.9 1014.9 0.0
29/09:00am 14.4 10.7 9.6 73 2.5 WNW 19 24 10 13 1014.8 1014.8 0.0
29/08:30am 13.2 10.9 10.6 84 1.4 WNW 13 19 7 10 1014.6 1014.6 0.0
29/08:00am 11.6 9.2 9.9 89 0.9 NW 13 17 7 9 1014.6 1014.6 0.0
29/07:30am 9.9 7.8 8.3 90 0.8 NNW 9 13 5 7 1014.6 1014.6 0.0
29/07:00am 9.5 6.5 7.9 90 0.8 NNW 13 17 7 9 1014.4 1014.4 0.0
29/06:30am 9.6 6.3 8.0 90 0.8 NNW 15 20 8 11 1014.0 1014.0 0.0
29/06:00am 9.2 6.6 7.6 90 0.8 NNW 11 17 6 9 1013.7 1013.7 0.0
29/05:30am 8.8 5.7 7.3 90 0.7 NNW 13 17 7 9 1013.2 1013.2 0.0
29/05:00am 8.7 5.6 7.2 90 0.7 NNW 13 15 7 8 1012.8 1012.9 0.0
29/04:30am 8.6 5.4 6.9 89 0.8 NW 13 13 7 7 1012.4 1012.5 0.0
29/04:00am 9.0 6.3 7.3 89 0.8 WNW 11 15 6 8 1012.1 1012.2 0.0
29/03:30am 9.0 5.1 7.1 88 0.9 W 17 19 9 10 1012.2 1012.3 0.0
29/03:00am 8.9 5.7 7.0 88 0.9 NW 13 15 7 8 1012.0 1012.1 0.0
29/02:30am 9.5 6.4 7.4 87 1.0 WNW 13 19 7 10 1011.9 1012.0 0.0
29/02:00am 9.6 6.5 7.4 86 1.1 NW 13 20 7 11 1012.0 1012.1 0.0
29/01:30am 10.0 6.9 7.4 84 1.2 WNW 13 19 7 10 1012.0 1012.1 0.0
29/01:00am 11.1 7.4 7.8 80 1.6 WNW 17 20 9 11 1011.9 1012.0 0.0
29/12:30am 11.6 6.6 7.9 78 1.8 W 24 33 13 18 1012.1 1012.2 0.0
29/12:00am 11.8 6.5 8.3 79 1.7 W 26 35 14 19 1012.0 1012.1 0.0
 
Date/Time
EST
Temp
°C
App
Temp
°C
Dew
Point
Rel
Hum
%
Delta-T
°C
Wind Press
QNH
hPa
Press
MSL
hPa
Rain
since 9 am
mm
Dir
 
Spd
km/h
Gust
km/h
Spd
kts
Gust
kts
28/11:30pm 11.3 7.3 8.2 81 1.5 W 19 22 10 12 1011.6 1011.7 0.0
28/11:00pm 11.7 7.5 7.4 75 2.1 W 19 24 10 13 1011.3 1011.4 0.0
28/10:30pm 11.8 8.1 6.3 69 2.6 W 15 19 8 10 1011.2 1011.2 0.0
28/10:00pm 12.9 8.3 6.5 65 3.1 WSW 20 30 11 16 1011.2 1011.2 0.0
28/09:30pm 13.4 8.7 6.0 61 3.5 WSW 20 26 11 14 1010.5 1010.5 0.0
28/09:00pm 14.3 9.3 6.4 59 3.8 WSW 22 32 12 17 1009.8 1009.8 0.0
28/08:30pm 15.0 10.3 7.8 62 3.6 WSW 22 28 12 15 1009.2 1009.2 0.0
28/08:00pm 16.2 11.9 7.9 58 4.2 WSW 20 30 11 16 1008.8 1008.8 0.0
28/07:30pm 17.3 11.6 6.8 50 5.2 W 26 37 14 20 1008.0 1008.0 0.0
28/07:00pm 18.6 12.4 7.7 49 5.6 WSW 30 44 16 24 1007.0 1007.0 0.0
28/06:30pm 20.5 13.6 8.8 47 6.2 WSW 35 50 19 27 1006.2 1006.2 0.0
28/06:10pm 22.7 13.9 7.3 37 8.0 WSW 43 54 23 29 1005.5 1005.6 0.0
28/06:06pm 25.5 17.6 4.6 26 10.6 WNW 35 54 19 29 1005.2 1005.3 0.0
28/06:00pm 26.3 18.0 2.3 21 11.7 WNW 35 46 19 25 1004.8 1004.8 0.0
28/05:30pm 26.5 18.8 2.4 21 11.8 WNW 32 41 17 22 1004.7 1004.7 0.0
28/05:00pm 27.2 18.2 2.3 20 12.3 W 39 57 21 31 1004.6 1004.6 0.0
28/04:30pm 28.5 18.5 1.1 17 13.3 W 43 54 23 29 1004.4 1004.4 0.0
28/04:00pm 30.0 20.0 -1.4 13 14.8 NW 41 65 22 35 1004.1 1004.1 0.0
28/03:30pm 29.5 20.8 -0.8 14 14.3 WNW 35 57 19 31 1004.3 1004.3 0.0
28/03:25pm 29.5 20.8 -0.8 14 14.3 WNW 35 57 19 31 1004.3 1004.3 0.0
28/03:00pm 30.6 20.5 0.1 14 14.8 NNW 43 61 23 33 1004.6 1004.6 0.0
28/02:30pm 29.3 19.9 0.0 15 14.0 NW 39 59 21 32 1005.4 1005.5 0.0
28/02:00pm 29.1 18.4 -0.1 15 14.0 NNW 46 67 25 36 1005.8 1005.8 0.0

Other Formats:

Comma delimited format used in spreadsheet applications
http://www.bom.gov.au/fwo/IDV60801/IDV60801.94827.axf

JavaScript Object Notation format (JSON) in row-major order
http://www.bom.gov.au/fwo/IDV60801/IDV60801.94827.json